P/2017 G2 ( PanSTARRS )

Japanese version
Home page
Updated on July 8, 2017

---------------------------------------------------------------------

* Profile

Discovery Date April 3, 2017
Magnitude 20.4 mag
Discoverer Pan-STARRS 1 telescope (Haleakala)

* Pictures

* Orbital Elements

Epoch 2017 June 16.0 TT = JDT 2457920.5
T 2017 June 13.91257 TT                                 MPCW
q   2.8462602            (2000.0)            P               Q
n   0.04244039     Peri.  105.93976     -0.68296405     +0.01121541
a   8.1398518      Node    79.81798     -0.42727759     -0.81710798
e   0.6503302      Incl.   47.90654     +0.59244744     -0.57637553
P  23.22
From 144 observations 2017 Mar. 18-June 30, mean residual 0".4.

* Magnitudes Graph

        m1 = 13.0 + 5 log d + 10.0 log r

---------------------------------------------------------------------

The orbital elements are published on M.P.E.C. 2017-N58.
The magnitudes graphs are made with Comet for Windows.

---------------------------------------------------------------------

Copyright(C) Seiichi Yoshida (comet@aerith.net). All rights reserved.